Location: Duac?
(36.9744°N, 30.6500°E)
Time: 11:28:52
(UTC+00:00)

Cosmos 968 Rocket - Pass Details

Date: 05 August 2024
Orbit: 738 x 767 km, 74.0° (Epoch: 11 September)

Event Time Altitude Azimuth Distance (km) Brightness Sun altitude
Rises 20:07:36 0° 341° (NNW) 3,220 7.8 -29.8°
Reaches altitude 10° 20:09:59 10° 341° (NNW) 2,286 6.8 -30.1°
Enters shadow 20:14:01 55° 336° (NNW) 903 4.0 -30.5°
